Year,Month,Day,Hour,Minute,Value (Times are PST for temperature in C)
2017,10,27,00,00,10.10
2017,10,27,00,01,10.10
2017,10,27,00,02,10.10
2017,10,27,00,03,10.10
2017,10,27,00,04,10.20
2017,10,27,00,05,10.20
2017,10,27,00,06,10.20
2017,10,27,00,07,10.20
2017,10,27,00,08,10.20
2017,10,27,00,09,10.20
2017,10,27,00,10,10.20
2017,10,27,00,11,10.30
2017,10,27,00,12,10.30
2017,10,27,00,13,10.30
2017,10,27,00,14,10.30
2017,10,27,00,15,10.30
2017,10,27,00,16,10.30
2017,10,27,00,17,10.30
2017,10,27,00,18,10.30
2017,10,27,00,19,10.30
2017,10,27,00,20,10.30
2017,10,27,00,21,10.30
2017,10,27,00,22,10.30
2017,10,27,00,23,10.30
2017,10,27,00,24,10.30
2017,10,27,00,25,10.30
2017,10,27,00,26,10.30
2017,10,27,00,27,10.30
2017,10,27,00,28,10.30
2017,10,27,00,29,10.30
2017,10,27,00,30,10.30
2017,10,27,00,31,10.30
2017,10,27,00,32,10.30
2017,10,27,00,33,10.30
2017,10,27,00,34,10.30
2017,10,27,00,35,10.30
2017,10,27,00,36,10.30
2017,10,27,00,37,10.30
2017,10,27,00,38,10.30
2017,10,27,00,39,10.30
2017,10,27,00,40,10.20
2017,10,27,00,41,10.20
2017,10,27,00,42,10.20
2017,10,27,00,43,10.20
2017,10,27,00,44,10.20
2017,10,27,00,45,10.20
2017,10,27,00,46,10.20
2017,10,27,00,47,10.20
2017,10,27,00,48,10.10
2017,10,27,00,49,10.10
2017,10,27,00,50,10.10
2017,10,27,00,51,10.10
2017,10,27,00,52,10.10
2017,10,27,00,53,10.10
2017,10,27,00,54,10.10
2017,10,27,00,55,10.10
2017,10,27,00,56,10.00
2017,10,27,00,57,10.00
2017,10,27,00,58,10.00
2017,10,27,00,59,10.00
2017,10,27,01,00,10.00
2017,10,27,01,01,9.90
2017,10,27,01,02,9.90
2017,10,27,01,03,9.90
2017,10,27,01,04,9.90
2017,10,27,01,05,9.90
2017,10,27,01,06,9.90
2017,10,27,01,07,9.90
2017,10,27,01,08,9.90
2017,10,27,01,09,9.90
2017,10,27,01,10,9.90
2017,10,27,01,11,9.80
2017,10,27,01,12,9.80
2017,10,27,01,13,9.80
2017,10,27,01,14,9.80
2017,10,27,01,15,9.80
2017,10,27,01,16,9.80
2017,10,27,01,17,9.80
2017,10,27,01,18,9.80
2017,10,27,01,19,9.80
2017,10,27,01,20,9.80
2017,10,27,01,21,9.70
2017,10,27,01,22,9.70
2017,10,27,01,23,9.70
2017,10,27,01,24,9.70
2017,10,27,01,25,9.70
2017,10,27,01,26,9.70
2017,10,27,01,27,9.70
2017,10,27,01,28,9.70
2017,10,27,01,29,9.70
2017,10,27,01,30,9.70
2017,10,27,01,31,9.70
2017,10,27,01,32,9.70
2017,10,27,01,33,9.60
2017,10,27,01,34,9.60
2017,10,27,01,35,9.60
2017,10,27,01,36,9.60
2017,10,27,01,37,9.60
2017,10,27,01,38,9.60
2017,10,27,01,39,9.60
2017,10,27,01,40,9.60
2017,10,27,01,41,9.60
2017,10,27,01,42,9.60
2017,10,27,01,43,9.60
2017,10,27,01,44,9.60
2017,10,27,01,45,9.60
2017,10,27,01,46,9.60
2017,10,27,01,47,9.60
2017,10,27,01,48,9.60
2017,10,27,01,49,9.70
2017,10,27,01,50,9.70
2017,10,27,01,51,9.70
2017,10,27,01,52,9.70
2017,10,27,01,53,9.70
2017,10,27,01,54,9.70
2017,10,27,01,55,9.70
2017,10,27,01,56,9.70
2017,10,27,01,57,9.70
2017,10,27,01,58,9.70
2017,10,27,01,59,9.70
2017,10,27,02,00,9.70
2017,10,27,02,01,9.70
2017,10,27,02,02,9.70
2017,10,27,02,03,9.70
2017,10,27,02,04,9.70
2017,10,27,02,05,9.70
2017,10,27,02,06,9.70
2017,10,27,02,07,9.70
2017,10,27,02,08,9.70
2017,10,27,02,09,9.70
2017,10,27,02,10,9.70
2017,10,27,02,11,9.70
2017,10,27,02,12,9.70
2017,10,27,02,13,9.70
2017,10,27,02,14,9.70
2017,10,27,02,15,9.70
2017,10,27,02,16,9.70
2017,10,27,02,17,9.70
2017,10,27,02,18,9.70
2017,10,27,02,19,9.70
2017,10,27,02,20,9.70
2017,10,27,02,21,9.70
2017,10,27,02,22,9.70
2017,10,27,02,23,9.70
2017,10,27,02,24,9.70
2017,10,27,02,25,9.80
2017,10,27,02,26,9.80
2017,10,27,02,27,9.80
2017,10,27,02,28,9.80
2017,10,27,02,29,9.80
2017,10,27,02,30,9.80
2017,10,27,02,31,9.80
2017,10,27,02,32,9.80
2017,10,27,02,33,9.80
2017,10,27,02,34,9.80
2017,10,27,02,35,9.80
2017,10,27,02,36,9.80
2017,10,27,02,37,9.80
2017,10,27,02,38,9.80
2017,10,27,02,39,9.80
2017,10,27,02,40,9.80
2017,10,27,02,41,9.80
2017,10,27,02,42,9.80
2017,10,27,02,43,9.80
2017,10,27,02,44,9.80
2017,10,27,02,45,9.80
2017,10,27,02,46,9.80
2017,10,27,02,47,9.80
2017,10,27,02,48,9.80
2017,10,27,02,49,9.80
2017,10,27,02,50,9.80
2017,10,27,02,51,9.80
2017,10,27,02,52,9.80
2017,10,27,02,53,9.80
2017,10,27,02,54,9.80
2017,10,27,02,55,9.80
2017,10,27,02,56,9.80
2017,10,27,02,57,9.80
2017,10,27,02,58,9.80
2017,10,27,02,59,9.80
2017,10,27,03,00,9.80
2017,10,27,03,01,9.80
2017,10,27,03,02,9.80
2017,10,27,03,03,9.80
2017,10,27,03,04,9.80
2017,10,27,03,05,9.80
2017,10,27,03,06,9.80
2017,10,27,03,07,9.80
2017,10,27,03,08,9.80
2017,10,27,03,09,9.80
2017,10,27,03,10,9.80
2017,10,27,03,11,9.80
2017,10,27,03,12,9.80
2017,10,27,03,13,9.80
2017,10,27,03,14,9.80
2017,10,27,03,15,9.80
2017,10,27,03,16,9.80
2017,10,27,03,17,9.80
2017,10,27,03,18,9.80
2017,10,27,03,19,9.80
2017,10,27,03,20,9.80
2017,10,27,03,21,9.80
2017,10,27,03,22,9.80
2017,10,27,03,23,9.80
2017,10,27,03,24,9.80
2017,10,27,03,25,9.80
2017,10,27,03,26,9.80
2017,10,27,03,27,9.80
2017,10,27,03,28,9.80
2017,10,27,03,29,9.70
2017,10,27,03,30,9.70
2017,10,27,03,31,9.70
2017,10,27,03,32,9.70
2017,10,27,03,33,9.80
2017,10,27,03,34,9.80
2017,10,27,03,35,9.70
2017,10,27,03,36,9.70
2017,10,27,03,37,9.70
2017,10,27,03,38,9.70
2017,10,27,03,39,9.70
2017,10,27,03,40,9.70
2017,10,27,03,41,9.70
2017,10,27,03,42,9.70
2017,10,27,03,43,9.70
2017,10,27,03,44,9.70
2017,10,27,03,45,9.70
2017,10,27,03,46,9.70
2017,10,27,03,47,9.70
2017,10,27,03,48,9.70
2017,10,27,03,49,9.70
2017,10,27,03,50,9.70
2017,10,27,03,51,9.70
2017,10,27,03,52,9.70
2017,10,27,03,53,9.70
2017,10,27,03,54,9.70
2017,10,27,03,55,9.70
2017,10,27,03,56,9.70
2017,10,27,03,57,9.70
2017,10,27,03,58,9.70
2017,10,27,03,59,9.70
2017,10,27,04,00,9.70
2017,10,27,04,01,9.70
2017,10,27,04,02,9.70
2017,10,27,04,03,9.70
2017,10,27,04,04,9.70
2017,10,27,04,05,9.80
2017,10,27,04,06,9.70
2017,10,27,04,07,9.80
2017,10,27,04,08,9.80
2017,10,27,04,09,9.80
2017,10,27,04,10,9.80
2017,10,27,04,11,9.80
2017,10,27,04,12,9.80
2017,10,27,04,13,9.80
2017,10,27,04,14,9.80
2017,10,27,04,15,9.80
2017,10,27,04,16,9.80
2017,10,27,04,17,9.90
2017,10,27,04,18,9.90
2017,10,27,04,19,9.90
2017,10,27,04,20,9.90
2017,10,27,04,21,9.90
2017,10,27,04,22,10.00
2017,10,27,04,23,10.00
2017,10,27,04,24,10.00
2017,10,27,04,25,10.00
2017,10,27,04,26,10.10
2017,10,27,04,27,10.10
2017,10,27,04,28,10.10
2017,10,27,04,29,10.10
2017,10,27,04,30,10.10
2017,10,27,04,31,10.10
2017,10,27,04,32,10.10
2017,10,27,04,33,10.20
2017,10,27,04,34,10.20
2017,10,27,04,35,10.20
2017,10,27,04,36,10.20
2017,10,27,04,37,10.20
2017,10,27,04,38,10.20
2017,10,27,04,39,10.30
2017,10,27,04,40,10.30
2017,10,27,04,41,10.30
2017,10,27,04,42,10.30
2017,10,27,04,43,10.30
2017,10,27,04,44,10.30
2017,10,27,04,45,10.30
2017,10,27,04,46,10.30
2017,10,27,04,47,10.30
2017,10,27,04,48,10.30
2017,10,27,04,49,10.30
2017,10,27,04,50,10.40
2017,10,27,04,51,10.40
2017,10,27,04,52,10.40
2017,10,27,04,53,10.40
2017,10,27,04,54,10.40
2017,10,27,04,55,10.40
2017,10,27,04,56,10.40
2017,10,27,04,57,10.40
2017,10,27,04,58,10.40
2017,10,27,04,59,10.40
2017,10,27,05,00,10.40
2017,10,27,05,01,10.40
2017,10,27,05,02,10.40
2017,10,27,05,03,10.40
2017,10,27,05,04,10.40
2017,10,27,05,05,10.40
2017,10,27,05,06,10.40
2017,10,27,05,07,10.40
2017,10,27,05,08,10.40
2017,10,27,05,09,10.30
2017,10,27,05,10,10.30
2017,10,27,05,11,10.30
2017,10,27,05,12,10.30
2017,10,27,05,13,10.30
2017,10,27,05,14,10.30
2017,10,27,05,15,10.30
2017,10,27,05,16,10.30
2017,10,27,05,17,10.30
2017,10,27,05,18,10.30
2017,10,27,05,19,10.20
2017,10,27,05,20,10.20
2017,10,27,05,21,10.20
2017,10,27,05,22,10.20
2017,10,27,05,23,10.20
2017,10,27,05,24,10.20
2017,10,27,05,25,10.20
2017,10,27,05,26,10.20
2017,10,27,05,27,10.10
2017,10,27,05,28,10.10
2017,10,27,05,29,10.10
2017,10,27,05,30,10.10
2017,10,27,05,31,10.10
2017,10,27,05,32,10.10
2017,10,27,05,33,10.10
2017,10,27,05,34,10.10
2017,10,27,05,35,10.10
2017,10,27,05,36,10.10
2017,10,27,05,37,10.10
2017,10,27,05,38,10.10
2017,10,27,05,39,10.10
2017,10,27,05,40,10.10
2017,10,27,05,41,10.10
2017,10,27,05,42,10.10
2017,10,27,05,43,10.10
2017,10,27,05,44,10.10
2017,10,27,05,45,10.10
2017,10,27,05,46,10.10
2017,10,27,05,47,10.10
2017,10,27,05,48,10.10
2017,10,27,05,49,10.10
2017,10,27,05,50,10.10
2017,10,27,05,51,10.10
2017,10,27,05,52,10.10
2017,10,27,05,53,10.10
2017,10,27,05,54,10.10
2017,10,27,05,55,10.10
2017,10,27,05,56,10.10
2017,10,27,05,57,10.10
2017,10,27,05,58,10.10
2017,10,27,05,59,10.10
2017,10,27,06,00,10.10
2017,10,27,06,01,10.10
2017,10,27,06,02,10.10
2017,10,27,06,03,10.20
2017,10,27,06,04,10.20
2017,10,27,06,05,10.30
2017,10,27,06,06,10.40
2017,10,27,06,07,10.50
2017,10,27,06,08,10.60
2017,10,27,06,09,10.70
2017,10,27,06,10,10.70
2017,10,27,06,11,10.80
2017,10,27,06,12,10.90
2017,10,27,06,13,10.90
2017,10,27,06,14,10.90
2017,10,27,06,15,10.90
2017,10,27,06,16,10.90
2017,10,27,06,17,11.00
2017,10,27,06,18,11.00
2017,10,27,06,19,11.00
2017,10,27,06,20,11.00
2017,10,27,06,21,11.00
2017,10,27,06,22,11.00
2017,10,27,06,23,11.00
2017,10,27,06,24,11.00
2017,10,27,06,25,11.00
2017,10,27,06,26,11.00
2017,10,27,06,27,11.00
2017,10,27,06,28,11.10
2017,10,27,06,29,11.10
2017,10,27,06,30,11.10
2017,10,27,06,31,11.10
2017,10,27,06,32,11.10
2017,10,27,06,33,11.10
2017,10,27,06,34,11.20
2017,10,27,06,35,11.20
2017,10,27,06,36,11.20
2017,10,27,06,37,11.30
2017,10,27,06,38,11.30
2017,10,27,06,39,11.20
2017,10,27,06,40,11.20
2017,10,27,06,41,11.20
2017,10,27,06,42,11.20
2017,10,27,06,43,11.20
2017,10,27,06,44,11.10
2017,10,27,06,45,11.10
2017,10,27,06,46,11.10
2017,10,27,06,47,11.00
2017,10,27,06,48,11.00
2017,10,27,06,49,11.00
2017,10,27,06,50,11.00
2017,10,27,06,51,11.00
2017,10,27,06,52,11.00
2017,10,27,06,53,11.00
2017,10,27,06,54,11.00
2017,10,27,06,55,10.90
2017,10,27,06,56,10.90
2017,10,27,06,57,10.90
2017,10,27,06,58,10.90
2017,10,27,06,59,10.90
2017,10,27,07,00,10.90
2017,10,27,07,01,10.90
2017,10,27,07,02,10.80
2017,10,27,07,03,10.80
2017,10,27,07,04,10.70
2017,10,27,07,05,10.70
2017,10,27,07,06,10.60
2017,10,27,07,07,10.60
2017,10,27,07,08,10.60
2017,10,27,07,09,10.60
2017,10,27,07,10,10.60
2017,10,27,07,11,10.60
2017,10,27,07,12,10.70
2017,10,27,07,13,10.70
2017,10,27,07,14,10.70
2017,10,27,07,15,10.70
2017,10,27,07,16,10.70
2017,10,27,07,17,10.70
2017,10,27,07,18,10.70
2017,10,27,07,19,10.70
2017,10,27,07,20,10.70
2017,10,27,07,21,10.70
2017,10,27,07,22,10.70
2017,10,27,07,23,10.70
2017,10,27,07,24,10.70
2017,10,27,07,25,10.70
2017,10,27,07,26,10.70
2017,10,27,07,27,10.70
2017,10,27,07,28,10.70
2017,10,27,07,29,10.70
2017,10,27,07,30,10.70
2017,10,27,07,31,10.70
2017,10,27,07,32,10.80
2017,10,27,07,33,10.80
2017,10,27,07,34,10.80
2017,10,27,07,35,10.80
2017,10,27,07,36,10.80
2017,10,27,07,37,10.80
2017,10,27,07,38,10.70
2017,10,27,07,39,10.70
2017,10,27,07,40,10.70
2017,10,27,07,41,10.70
2017,10,27,07,42,10.70
2017,10,27,07,43,10.70
2017,10,27,07,44,10.70
2017,10,27,07,45,10.70
2017,10,27,07,46,10.60
2017,10,27,07,47,10.70
2017,10,27,07,48,10.70
2017,10,27,07,49,10.70
2017,10,27,07,50,10.70
2017,10,27,07,51,10.70
2017,10,27,07,52,10.70
2017,10,27,07,53,10.70
2017,10,27,07,54,10.70
2017,10,27,07,55,10.70
2017,10,27,07,56,10.70
2017,10,27,07,57,10.70
2017,10,27,07,58,10.70
2017,10,27,07,59,10.80
2017,10,27,08,00,10.80
2017,10,27,08,01,10.80
2017,10,27,08,02,10.80
2017,10,27,08,03,10.80
2017,10,27,08,04,10.80
2017,10,27,08,05,10.80
2017,10,27,08,06,10.80
2017,10,27,08,07,10.90
2017,10,27,08,08,10.90
2017,10,27,08,09,10.90
2017,10,27,08,10,10.90
2017,10,27,08,11,10.90
2017,10,27,08,12,10.90
2017,10,27,08,13,10.90
2017,10,27,08,14,11.00
2017,10,27,08,15,11.00
2017,10,27,08,16,11.00
2017,10,27,08,17,11.10
2017,10,27,08,18,11.10
2017,10,27,08,19,11.10
2017,10,27,08,20,11.10
2017,10,27,08,21,11.10
2017,10,27,08,22,11.10
2017,10,27,08,23,11.20
2017,10,27,08,24,11.20
2017,10,27,08,25,11.20
2017,10,27,08,26,11.20
2017,10,27,08,27,11.20
2017,10,27,08,28,11.20
2017,10,27,08,29,11.20
2017,10,27,08,30,11.20
2017,10,27,08,31,11.20
2017,10,27,08,32,11.20
2017,10,27,08,33,11.20
2017,10,27,08,34,11.20
2017,10,27,08,35,11.20
2017,10,27,08,36,11.20
2017,10,27,08,37,11.20
2017,10,27,08,38,11.20
2017,10,27,08,39,11.20
2017,10,27,08,40,11.20
2017,10,27,08,41,11.20
2017,10,27,08,42,11.30
2017,10,27,08,43,11.30
2017,10,27,08,44,11.30
2017,10,27,08,45,11.30
2017,10,27,08,46,11.30
2017,10,27,08,47,11.30
2017,10,27,08,48,11.40
2017,10,27,08,49,11.40
2017,10,27,08,50,11.40
2017,10,27,08,51,11.50
2017,10,27,08,52,11.50
2017,10,27,08,53,11.50
2017,10,27,08,54,11.60
2017,10,27,08,55,11.60
2017,10,27,08,56,11.60
2017,10,27,08,57,11.70
2017,10,27,08,58,11.70
2017,10,27,08,59,11.70
2017,10,27,09,00,11.80
2017,10,27,09,01,11.80
2017,10,27,09,02,11.90
2017,10,27,09,03,11.90
2017,10,27,09,04,12.00
2017,10,27,09,05,12.00
2017,10,27,09,06,12.10
2017,10,27,09,07,12.10
2017,10,27,09,08,12.20
2017,10,27,09,09,12.20
2017,10,27,09,10,12.30
2017,10,27,09,11,12.30
2017,10,27,09,12,12.30
2017,10,27,09,13,12.30
2017,10,27,09,14,12.40
2017,10,27,09,15,12.40
2017,10,27,09,16,12.40
2017,10,27,09,17,12.50
2017,10,27,09,18,12.50
2017,10,27,09,19,12.60
2017,10,27,09,20,12.60
2017,10,27,09,21,12.60
2017,10,27,09,22,12.70
2017,10,27,09,23,12.70
2017,10,27,09,24,12.70
2017,10,27,09,25,12.80
2017,10,27,09,26,12.80
2017,10,27,09,27,12.80
2017,10,27,09,28,12.90
2017,10,27,09,29,12.90
2017,10,27,09,30,13.00
2017,10,27,09,31,13.00
2017,10,27,09,32,13.10
2017,10,27,09,33,13.10
2017,10,27,09,34,13.20
2017,10,27,09,35,13.20
2017,10,27,09,36,13.20
2017,10,27,09,37,13.30
2017,10,27,09,38,13.30
2017,10,27,09,39,13.30
2017,10,27,09,40,13.30
2017,10,27,09,41,13.30
2017,10,27,09,42,13.40
2017,10,27,09,43,13.40
2017,10,27,09,44,13.40
2017,10,27,09,45,13.40
2017,10,27,09,46,13.40
2017,10,27,09,47,13.40
2017,10,27,09,48,13.40
2017,10,27,09,49,13.40
2017,10,27,09,50,13.50
2017,10,27,09,51,13.50
2017,10,27,09,52,13.50
2017,10,27,09,53,13.60
2017,10,27,09,54,13.60
2017,10,27,09,55,13.60
2017,10,27,09,56,13.60
2017,10,27,09,57,13.70
2017,10,27,09,58,13.70
2017,10,27,09,59,13.70
2017,10,27,10,00,13.70
2017,10,27,10,01,13.80
2017,10,27,10,02,13.80
2017,10,27,10,03,13.80
2017,10,27,10,04,13.90
2017,10,27,10,05,14.00
2017,10,27,10,06,14.00
2017,10,27,10,07,14.10
2017,10,27,10,08,14.10
2017,10,27,10,09,14.20
2017,10,27,10,10,14.20
2017,10,27,10,11,14.20
2017,10,27,10,12,14.30
2017,10,27,10,13,14.30
2017,10,27,10,14,14.30
2017,10,27,10,15,14.30
2017,10,27,10,16,14.20
2017,10,27,10,17,14.20
2017,10,27,10,18,14.20
2017,10,27,10,19,14.20
2017,10,27,10,20,14.20
2017,10,27,10,21,14.20
2017,10,27,10,22,14.30
2017,10,27,10,23,14.30
2017,10,27,10,24,14.30
2017,10,27,10,25,14.30
2017,10,27,10,26,14.30
2017,10,27,10,27,14.30
2017,10,27,10,28,14.30
2017,10,27,10,29,14.40
2017,10,27,10,30,14.40
2017,10,27,10,31,14.40
2017,10,27,10,32,14.40
2017,10,27,10,33,14.40
2017,10,27,10,34,14.50
2017,10,27,10,35,14.50
2017,10,27,10,36,14.50
2017,10,27,10,37,14.60
2017,10,27,10,38,14.70
2017,10,27,10,39,14.70
2017,10,27,10,40,14.70
2017,10,27,10,41,14.70
2017,10,27,10,42,14.70
2017,10,27,10,43,14.70
2017,10,27,10,44,14.70
2017,10,27,10,45,14.70
2017,10,27,10,46,14.70
2017,10,27,10,47,14.70
2017,10,27,10,48,14.70
2017,10,27,10,49,14.70
2017,10,27,10,50,14.70
2017,10,27,10,51,14.70
2017,10,27,10,52,14.70
2017,10,27,10,53,14.70
2017,10,27,10,54,14.70
2017,10,27,10,55,14.70
2017,10,27,10,56,14.70
2017,10,27,10,57,14.70
2017,10,27,10,58,14.70
2017,10,27,10,59,14.70
2017,10,27,11,00,14.80
2017,10,27,11,01,14.80
2017,10,27,11,02,14.80
2017,10,27,11,03,14.80
2017,10,27,11,04,14.80
2017,10,27,11,05,14.80
2017,10,27,11,06,14.80
2017,10,27,11,07,14.80
2017,10,27,11,08,14.80
2017,10,27,11,09,14.80
2017,10,27,11,10,14.90
2017,10,27,11,11,14.90
2017,10,27,11,12,14.90
2017,10,27,11,13,14.90
2017,10,27,11,14,15.00
2017,10,27,11,15,15.00
2017,10,27,11,16,15.00
2017,10,27,11,17,15.00
2017,10,27,11,18,15.00
2017,10,27,11,19,15.10
2017,10,27,11,20,15.10
2017,10,27,11,21,15.10
2017,10,27,11,22,15.10
2017,10,27,11,23,15.10
2017,10,27,11,24,15.10
2017,10,27,11,25,15.10
2017,10,27,11,26,15.10
2017,10,27,11,27,15.10
2017,10,27,11,28,15.00
2017,10,27,11,29,15.00
2017,10,27,11,30,15.00
2017,10,27,11,31,15.10
2017,10,27,11,32,15.10
2017,10,27,11,33,15.10
2017,10,27,11,34,15.10
2017,10,27,11,35,15.10
2017,10,27,11,36,15.20
2017,10,27,11,37,15.20
2017,10,27,11,38,15.20
2017,10,27,11,39,15.30
2017,10,27,11,40,15.20
2017,10,27,11,41,15.20
2017,10,27,11,42,15.20
2017,10,27,11,43,15.20
2017,10,27,11,44,15.20
2017,10,27,11,45,15.20
2017,10,27,11,46,15.20
2017,10,27,11,47,15.20
2017,10,27,11,48,15.10
2017,10,27,11,49,15.10
2017,10,27,11,50,15.10
2017,10,27,11,51,15.20
2017,10,27,11,52,15.20
2017,10,27,11,53,15.20
2017,10,27,11,54,15.20
2017,10,27,11,55,15.20
2017,10,27,11,56,15.20
2017,10,27,11,57,15.30
2017,10,27,11,58,15.30
2017,10,27,11,59,15.30
2017,10,27,12,00,15.30
2017,10,27,12,01,15.40
2017,10,27,12,02,15.40
2017,10,27,12,03,15.40
2017,10,27,12,04,15.40
2017,10,27,12,05,15.40
2017,10,27,12,06,15.40
2017,10,27,12,07,15.40
2017,10,27,12,08,15.40
2017,10,27,12,09,15.40
2017,10,27,12,10,15.40
2017,10,27,12,11,15.50
2017,10,27,12,12,15.50
2017,10,27,12,13,15.50
2017,10,27,12,14,15.50
2017,10,27,12,15,15.50
2017,10,27,12,16,15.50
2017,10,27,12,17,15.50
2017,10,27,12,18,15.40
2017,10,27,12,19,15.40
2017,10,27,12,20,15.40
2017,10,27,12,21,15.40
2017,10,27,12,22,15.40
2017,10,27,12,23,15.40
2017,10,27,12,24,15.40
2017,10,27,12,25,15.40
2017,10,27,12,26,15.50
2017,10,27,12,27,15.50
2017,10,27,12,28,15.60
2017,10,27,12,29,15.60
2017,10,27,12,30,15.60
2017,10,27,12,31,15.70
2017,10,27,12,32,15.70
2017,10,27,12,33,15.80
2017,10,27,12,34,15.80
2017,10,27,12,35,15.90
2017,10,27,12,36,15.90
2017,10,27,12,37,15.90
2017,10,27,12,38,15.90
2017,10,27,12,39,15.90
2017,10,27,12,40,15.80
2017,10,27,12,41,15.80
2017,10,27,12,42,15.80
2017,10,27,12,43,15.80
2017,10,27,12,44,15.80
2017,10,27,12,45,15.80
2017,10,27,12,46,15.90
2017,10,27,12,47,15.90
2017,10,27,12,48,15.90
2017,10,27,12,49,16.00
2017,10,27,12,50,16.00
2017,10,27,12,51,16.00
2017,10,27,12,52,16.00
2017,10,27,12,53,16.00
2017,10,27,12,54,16.00
2017,10,27,12,55,15.90
2017,10,27,12,56,15.90
2017,10,27,12,57,15.90
2017,10,27,12,58,15.90
2017,10,27,12,59,15.90
2017,10,27,13,00,15.90
2017,10,27,13,01,15.90
2017,10,27,13,02,16.00
2017,10,27,13,03,16.00
2017,10,27,13,04,16.10
2017,10,27,13,05,16.10
2017,10,27,13,06,16.10
2017,10,27,13,07,16.10
2017,10,27,13,08,16.10
2017,10,27,13,09,16.10
2017,10,27,13,10,16.10
2017,10,27,13,11,16.00
2017,10,27,13,12,16.00
2017,10,27,13,13,16.00
2017,10,27,13,14,16.00
2017,10,27,13,15,16.10
2017,10,27,13,16,16.10
2017,10,27,13,17,16.00
2017,10,27,13,18,16.00
2017,10,27,13,19,16.00
2017,10,27,13,20,16.00
2017,10,27,13,21,16.00
2017,10,27,13,22,16.10
2017,10,27,13,23,16.10
2017,10,27,13,24,16.10
2017,10,27,13,25,16.10
2017,10,27,13,26,16.20
2017,10,27,13,27,16.20
2017,10,27,13,28,16.30
2017,10,27,13,29,16.30
2017,10,27,13,30,16.40
2017,10,27,13,31,16.50
2017,10,27,13,32,16.50
2017,10,27,13,33,16.60
2017,10,27,13,34,16.70
2017,10,27,13,35,16.70
2017,10,27,13,36,16.70
2017,10,27,13,37,16.80
2017,10,27,13,38,16.80
2017,10,27,13,39,16.80
2017,10,27,13,40,16.80
2017,10,27,13,41,16.80
2017,10,27,13,42,16.80
2017,10,27,13,43,16.80
2017,10,27,13,44,16.80
2017,10,27,13,45,16.80
2017,10,27,13,46,16.80
2017,10,27,13,47,16.80
2017,10,27,13,48,16.80
2017,10,27,13,49,16.90
2017,10,27,13,50,16.90
2017,10,27,13,51,16.90
2017,10,27,13,52,16.90
2017,10,27,13,53,16.90
2017,10,27,13,54,17.00
2017,10,27,13,55,17.00
2017,10,27,13,56,17.10
2017,10,27,13,57,17.10
2017,10,27,13,58,17.10
2017,10,27,13,59,17.20
2017,10,27,14,00,17.20
2017,10,27,14,01,17.20
2017,10,27,14,02,17.20
2017,10,27,14,03,17.10
2017,10,27,14,04,17.10
2017,10,27,14,05,17.10
2017,10,27,14,06,17.20
2017,10,27,14,07,17.20
2017,10,27,14,08,17.20
2017,10,27,14,09,17.20
2017,10,27,14,10,17.20
2017,10,27,14,11,17.20
2017,10,27,14,12,17.20
2017,10,27,14,13,17.20
2017,10,27,14,14,17.30
2017,10,27,14,15,17.30
2017,10,27,14,16,17.30
2017,10,27,14,17,17.40
2017,10,27,14,18,17.40
2017,10,27,14,19,17.40
2017,10,27,14,20,17.40
2017,10,27,14,21,17.50
2017,10,27,14,22,17.50
2017,10,27,14,23,17.50
2017,10,27,14,24,17.60
2017,10,27,14,25,17.60
2017,10,27,14,26,17.60
2017,10,27,14,27,17.60
2017,10,27,14,28,17.50
2017,10,27,14,29,17.50
